TimeEDT,TemperatureF,Dew PointF,Humidity,Sea Level PressureIn,VisibilityMPH,Wind Direction,Wind SpeedMPH,Gust SpeedMPH,PrecipitationIn,Events,Conditions,WindDirDegrees,DateUTC
12:51 AM,62.1,60.1,93,30.06,10.0,Calm,Calm,-,N/A,,Clear,0,2012-10-15 04:51:00
1:51 AM,64.9,62.1,90,30.03,10.0,Calm,Calm,-,N/A,,Mostly Cloudy,0,2012-10-15 05:51:00
2:51 AM,66.0,64.0,93,30.01,10.0,Calm,Calm,-,N/A,,Mostly Cloudy,0,2012-10-15 06:51:00
3:30 AM,69.8,66.2,88,29.99,4.0,SE,6.9,-,0.01,Rain,Light Rain,130,2012-10-15 07:30:00
3:38 AM,69.8,66.2,88,29.99,4.0,ESE,3.5,-,0.03,Rain,Light Rain,120,2012-10-15 07:38:00
3:51 AM,69.1,66.0,90,29.99,10.0,Calm,Calm,-,0.03,,Overcast,0,2012-10-15 07:51:00
4:51 AM,66.9,64.9,93,29.97,10.0,East,3.5,-,N/A,,Scattered Clouds,100,2012-10-15 08:51:00
5:51 AM,66.9,64.9,93,29.96,7.0,Calm,Calm,-,N/A,,Mostly Cloudy,0,2012-10-15 09:51:00
6:51 AM,66.9,66.0,97,29.94,5.0,Calm,Calm,-,N/A,,Mostly Cloudy,0,2012-10-15 10:51:00
7:51 AM,70.0,68.0,93,29.95,6.0,Calm,Calm,-,0.00,,Mostly Cloudy,0,2012-10-15 11:51:00
8:16 AM,71.6,69.8,94,29.94,8.0,Calm,Calm,-,N/A,,Overcast,0,2012-10-15 12:16:00
8:51 AM,73.0,71.1,93,29.94,7.0,Calm,Calm,-,0.01,,Overcast,0,2012-10-15 12:51:00
9:17 AM,73.4,69.8,88,29.94,8.0,Calm,Calm,-,0.01,,Scattered Clouds,0,2012-10-15 13:17:00
9:51 AM,73.9,70.0,87,29.94,9.0,Calm,Calm,-,0.01,,Partly Cloudy,0,2012-10-15 13:51:00
10:51 AM,75.0,68.0,79,29.93,10.0,Calm,Calm,-,N/A,,Clear,0,2012-10-15 14:51:00
11:51 AM,73.9,66.9,79,29.91,10.0,South,3.5,-,N/A,,Overcast,190,2012-10-15 15:51:00
12:51 PM,75.0,66.9,76,29.88,10.0,SW,4.6,-,N/A,,Overcast,230,2012-10-15 16:51:00
1:51 PM,75.9,66.9,74,29.84,10.0,SW,4.6,-,N/A,,Scattered Clouds,220,2012-10-15 17:51:00
2:51 PM,75.9,68.0,76,29.82,10.0,SSW,6.9,-,N/A,,Clear,210,2012-10-15 18:51:00
3:51 PM,75.9,66.9,74,29.78,10.0,SSW,5.8,-,N/A,,Clear,210,2012-10-15 19:51:00
4:51 PM,75.0,64.9,71,29.76,10.0,SSW,8.1,-,N/A,,Clear,210,2012-10-15 20:51:00
5:51 PM,73.9,64.9,73,29.76,9.0,WSW,6.9,-,N/A,,Clear,250,2012-10-15 21:51:00
6:51 PM,73.9,66.9,79,29.74,10.0,SW,10.4,-,N/A,,Clear,230,2012-10-15 22:51:00
7:51 PM,73.9,68.0,82,29.73,10.0,SW,10.4,-,N/A,,Clear,230,2012-10-15 23:51:00
8:51 PM,73.9,69.1,85,29.73,10.0,WSW,12.7,-,N/A,,Clear,240,2012-10-16 00:51:00
9:51 PM,73.9,66.0,76,29.75,10.0,WSW,13.8,21.9,N/A,,Clear,240,2012-10-16 01:51:00
10:51 PM,64.9,60.1,84,29.76,4.0,WNW,11.5,29.9,0.01,Rain,Light Rain,300,2012-10-16 02:51:00
11:02 PM,64.4,62.6,94,29.76,1.8,WNW,6.9,21.9,0.06,Rain,Heavy Rain,300,2012-10-16 03:02:00
11:16 PM,64.4,62.6,94,29.75,1.2,WNW,5.8,-,0.25,Rain,Rain,300,2012-10-16 03:16:00
11:20 PM,64.4,62.6,94,29.74,2.0,Variable,3.5,-,0.27,Rain,Rain,0,2012-10-16 03:20:00
11:27 PM,64.4,62.6,94,29.73,5.0,West,3.5,-,0.28,Rain,Rain,270,2012-10-16 03:27:00
11:51 PM,64.9,63.0,93,29.73,10.0,NW,5.8,-,0.30,Rain,Light Rain,310,2012-10-16 03:51:00